When you browse on this site, cookies collect data to enhance your experience and personalize the content and advertising you see.
Visit our Privacy Policy to learn more. By continuing to use the site, you agree to this use of cookies and data.
  • In Hungary
  • List of Countries
  • For 7 days
  • Water Temperature
  • Satellite Maps
  • Weather Map
  • News
  • Weather Widgets
  • user-avatar
    Login

    Hourly Weather Silec

    Today, 22 January, Tuesday

    Time Temperature Precipitation Wind Pressure Humidity
    00:00 -7°C° 0 mm 2 mps 752 mmHg 92%
    01:00 -7°C° 0 mm 2 mps 752 mmHg 91%
    02:00 -7°C° 0 mm 2 mps 752 mmHg 91%
    03:00 -8°C° 0 mm 2 mps 752 mmHg 91%
    04:00 -8°C° 0 mm 2 mps 752 mmHg 90%
    05:00 -8°C° 0 mm 2 mps 751 mmHg 90%
    06:00 -8°C° 0 mm 2 mps 751 mmHg 89%
    07:00 -8°C° 0 mm 2 mps 751 mmHg 89%
    08:00 -7°C° 0 mm 2 mps 751 mmHg 88%
    09:00 -8°C° 0 mm 3 mps 751 mmHg 87%
    10:00 -7°C° 0 mm 3 mps 751 mmHg 85%
    11:00 -6°C° 0 mm 3 mps 751 mmHg 85%
    12:00 -6°C° 0 mm 3 mps 751 mmHg 85%
    13:00 -5°C° 0 mm 3 mps 751 mmHg 85%
    14:00 -6°C° 0 mm 3 mps 750 mmHg 87%
    15:00 -7°C° 0 mm 3 mps 750 mmHg 89%
    16:00 -7°C° 0 mm 3 mps 750 mmHg 91%
    17:00 -8°C° 0 mm 3 mps 750 mmHg 91%
    18:00 -8°C° 0 mm 3 mps 750 mmHg 92%
    19:00 -9°C° 0 mm 3 mps 749 mmHg 93%
    20:00 -9°C° 0 mm 3 mps 749 mmHg 93%
    21:00 -9°C° 0 mm 3 mps 749 mmHg 93%
    22:00 -10°C° 0 mm 3 mps 749 mmHg 93%
    23:00 -10°C° 0 mm 3 mps 749 mmHg 93%

    Tomorrow, 23 January, Wednesday

    Time Temperature Precipitation Wind Pressure Humidity
    00:00 -10°C° 0 mm 3 mps 749 mmHg 93%
    01:00 -10°C° 0 mm 3 mps 749 mmHg 93%
    02:00 -10°C° 0 mm 3 mps 749 mmHg 93%
    03:00 -12°C° 0 mm 3 mps 748 mmHg 94%
    04:00 -12°C° 0 mm 3 mps 748 mmHg 94%
    05:00 -12°C° 0 mm 3 mps 748 mmHg 94%
    06:00 -13°C° 0 mm 3 mps 748 mmHg 94%
    07:00 -13°C° 0 mm 3 mps 748 mmHg 95%
    08:00 -12°C° 0 mm 3 mps 748 mmHg 94%
    09:00 -12°C° 0 mm 3 mps 748 mmHg 93%
    10:00 -10°C° 0 mm 3 mps 749 mmHg 92%
    11:00 -10°C° 0 mm 3 mps 748 mmHg 91%
    12:00 -9°C° 0 mm 3 mps 748 mmHg 90%
    13:00 -7°C° 0 mm 2 mps 748 mmHg 88%
    14:00 -8°C° 0 mm 2 mps 748 mmHg 90%
    15:00 -9°C° 0 mm 2 mps 748 mmHg 91%
    16:00 -10°C° 0 mm 2 mps 748 mmHg 92%
    17:00 -10°C° 0 mm 2 mps 748 mmHg 92%
    18:00 -12°C° 0 mm 2 mps 749 mmHg 93%
    19:00 -12°C° 0 mm 2 mps 749 mmHg 93%
    20:00 -12°C° 0 mm 2 mps 749 mmHg 93%
    21:00 -12°C° 0 mm 2 mps 749 mmHg 93%
    22:00 -13°C° 0 mm 2 mps 750 mmHg 94%
    23:00 -13°C° 0 mm 2 mps 750 mmHg 93%

    Day after tomorrow, 24 January, Thursday

    Time Temperature Precipitation Wind Pressure Humidity
    00:00 -13°C° 0 mm 2 mps 750 mmHg 93%
    01:00 -11°C° 0 mm 1 mps 750 mmHg 93%
    02:00 -11°C° 0 mm 1 mps 750 mmHg 93%
    03:00 -11°C° 0 mm 1 mps 750 mmHg 92%
    04:00 -12°C° 0 mm 1 mps 751 mmHg 91%
    05:00 -14°C° 0 mm 2 mps 751 mmHg 90%
    06:00 -14°C° 0 mm 2 mps 751 mmHg 89%
    07:00 -14°C° 0 mm 2 mps 752 mmHg 88%
    08:00 -13°C° 0 mm 2 mps 752 mmHg 85%
    09:00 -10°C° 0 mm 1 mps 752 mmHg 83%
    10:00 -9°C° 0 mm 1 mps 753 mmHg 81%
    11:00 -8°C° 0 mm 1 mps 753 mmHg 79%
    12:00 -7°C° 0 mm 1 mps 753 mmHg 77%
    13:00 -6°C° 0 mm 1 mps 753 mmHg 75%
    14:00 -7°C° 0 mm 1 mps 753 mmHg 78%
    15:00 -8°C° 0 mm 1 mps 753 mmHg 80%
    16:00 -9°C° 0 mm 1 mps 753 mmHg 83%
    17:00 -9°C° 0 mm 1 mps 753 mmHg 82%
    18:00 -10°C° 0 mm 1 mps 753 mmHg 81%
    19:00 -12°C° 0 mm 2 mps 753 mmHg 80%
    20:00 -12°C° 0 mm 2 mps 754 mmHg 80%
    21:00 -12°C° 0 mm 2 mps 754 mmHg 80%
    22:00 -12°C° 0 mm 2 mps 754 mmHg 80%
    23:00 -12°C° 0 mm 2 mps 754 mmHg 81%

    25 January, Friday

    Time Temperature Precipitation Wind Pressure Humidity
    00:00 -13°C° 0 mm 2 mps 754 mmHg 82%
    01:00 -13°C° 0 mm 2 mps 754 mmHg 82%
    02:00 -13°C° 0 mm 2 mps 754 mmHg 83%
    03:00 -13°C° 0 mm 2 mps 753 mmHg 83%
    04:00 -11°C° 0 mm 1 mps 753 mmHg 83%
    05:00 -13°C° 0 mm 2 mps 753 mmHg 83%
    06:00 -13°C° 0 mm 2 mps 753 mmHg 83%
    07:00 -13°C° 0 mm 2 mps 753 mmHg 83%
    08:00 -12°C° 0 mm 2 mps 753 mmHg 83%
    09:00 -10°C° 0 mm 2 mps 753 mmHg 83%
    10:00 -10°C° 0 mm 2 mps 754 mmHg 82%
    11:00 -9°C° 0 mm 2 mps 753 mmHg 82%
    12:00 -8°C° 0 mm 2 mps 753 mmHg 81%
    13:00 -7°C° 0 mm 2 mps 753 mmHg 81%
    14:00 -7°C° 0 mm 1 mps 753 mmHg 83%
    15:00 -8°C° 0 mm 1 mps 753 mmHg 85%
    16:00 -9°C° 0 mm 1 mps 753 mmHg 86%
    17:00 -10°C° 0 mm 2 mps 753 mmHg 86%
    18:00 -12°C° 0 mm 2 mps 753 mmHg 86%
    19:00 -12°C° 0 mm 2 mps 752 mmHg 86%
    20:00 -12°C° 0 mm 2 mps 752 mmHg 86%
    21:00 -12°C° 0 mm 2 mps 752 mmHg 86%
    22:00 -12°C° 0 mm 2 mps 752 mmHg 86%
    23:00 -13°C° 0 mm 2 mps 752 mmHg 87%

    26 January, Saturday

    Time Temperature Precipitation Wind Pressure Humidity
    00:00 -14°C° 0 mm 3 mps 751 mmHg 87%
    01:00 -14°C° 0 mm 3 mps 751 mmHg 88%
    02:00 -14°C° 0 mm 3 mps 751 mmHg 88%
    03:00 -14°C° 0 mm 3 mps 750 mmHg 88%
    04:00 -14°C° 0 mm 3 mps 750 mmHg 88%
    05:00 -15°C° 0 mm 4 mps 749 mmHg 88%
    06:00 -14°C° 0 mm 4 mps 749 mmHg 87%
    07:00 -14°C° 0 mm 4 mps 749 mmHg 87%
    08:00 -13°C° 0 mm 5 mps 748 mmHg 85%
    09:00 -13°C° 0 mm 5 mps 748 mmHg 84%
    10:00 -12°C° 0 mm 6 mps 748 mmHg 82%
    11:00 -11°C° 0 mm 6 mps 747 mmHg 81%
    12:00 -10°C° 0 mm 6 mps 746 mmHg 80%
    13:00 -11°C° 0 mm 7 mps 746 mmHg 79%
    14:00 -11°C° 0 mm 7 mps 745 mmHg 80%
    15:00 -11°C° 0 mm 7 mps 744 mmHg 82%
    16:00 -11°C° 0 mm 7 mps 744 mmHg 84%
    17:00 -11°C° 0.3 mm 7 mps 743 mmHg 86%
    18:00 -11°C° 0.3 mm 7 mps 743 mmHg 88%
    19:00 -11°C° 0.3 mm 7 mps 742 mmHg 90%
    20:00 -9°C° 0.2 mm 7 mps 742 mmHg 89%
    21:00 -9°C° 0.2 mm 7 mps 741 mmHg 89%
    22:00 -9°C° 0.2 mm 7 mps 741 mmHg 89%
    23:00 -9°C° 0.3 mm 7 mps 740 mmHg 90%

    27 January, Sunday

    Time Temperature Precipitation Wind Pressure Humidity
    00:00 -9°C° 0.3 mm 7 mps 739 mmHg 91%
    01:00 -10°C° 0.3 mm 8 mps 739 mmHg 91%
    02:00 -10°C° 0.6 mm 8 mps 738 mmHg 92%
    03:00 -8°C° 0.6 mm 8 mps 737 mmHg 93%
    04:00 -8°C° 0.6 mm 8 mps 736 mmHg 93%
    05:00 -7°C° 0.6 mm 8 mps 736 mmHg 93%
    06:00 -7°C° 0.6 mm 7 mps 735 mmHg 93%
    07:00 -6°C° 0.6 mm 7 mps 735 mmHg 92%
    08:00 -4°C° 0.2 mm 7 mps 734 mmHg 93%
    09:00 -3°C° 0.2 mm 6 mps 734 mmHg 94%
    10:00 -2°C° 0.2 mm 6 mps 734 mmHg 95%
    11:00 -2°C° 0.7 mm 6 mps 734 mmHg 96%
    12:00 -1°C° 0.7 mm 5 mps 734 mmHg 97%
    13:00 -1°C° 0.7 mm 5 mps 734 mmHg 98%
    14:00 -1°C° 0.4 mm 5 mps 734 mmHg 97%
    15:00 -1°C° 0.4 mm 4 mps 734 mmHg 97%
    16:00 -1°C° 0.4 mm 4 mps 734 mmHg 97%
    17:00 -1°C° 0.1 mm 4 mps 735 mmHg 96%
    18:00 -1°C° 0.1 mm 3 mps 735 mmHg 96%
    19:00 -1°C° 0.1 mm 3 mps 735 mmHg 95%
    20:00 -2°C° 0.2 mm 4 mps 736 mmHg 95%
    21:00 -2°C° 0.2 mm 4 mps 736 mmHg 94%
    22:00 -2°C° 0.2 mm 5 mps 737 mmHg 93%
    23:00 -2°C° 0 mm 4 mps 737 mmHg 93%
    Show more